Weather History for Litchfield, MN

Change the Weather History Date:

Sunday, November 13, 2011

  Actual Average Record
Temperature  
Mean Temperature 40 °F -  
Max Temperature 44 °F 38 °F 71 °F (1999)
Min Temperature 35 °F 23 °F -4 °F (1986)
Degree Days  
Heating Degree Days 26    
Moisture  
Dew Point 29 °F    
Average Humidity 66    
Maximum Humidity 75    
Minimum Humidity 53    
Precipitation  
Precipitation 0.00 in - - ()
Sea Level Pressure  
Sea Level Pressure 29.27 in    
Wind  
Wind Speed 6 mph (West)    
Max Wind Speed 14 mph    
Max Gust Speed 21 mph    
Visibility 10 miles    
Events      
Averages and records for this station are not official NWS values.
T = Trace of Precipitation, MM = Missing Value Source: NWS Daily Summary

Daily Weather History Graph

Daily Weather History Graph

Search for Another Location

Airport:

Trip Planner

Search our weather history database for the weather conditions in past years. The results will help you decide how hot, cold, wet, or windy it might be!

Date:

Astronomy

Nov. 13, 2011 Rise Set
Actual Time 7:12 AM CST 4:51 PM CST
Civil Twilight 6:41 AM CST 5:22 PM CST
Nautical Twilight 6:05 AM CST 5:58 PM CST
Astronomical Twilight 5:31 AM CST 6:32 PM CST
Moon 6:55 PM CST (11/13) 9:51 AM CST (11/13)
Length of Visible Light 10h 41m
Length of Day
9h 38m
Waning Gibbous, 92% of the Moon is Illuminated
Nov 13
Waning Gibbous
Nov 18
Last Quarter
Nov 25
New
Dec 2
First Quarter
Dec 10
Full

Hourly Weather History & Observations

Time (CST) Temp. Windchill Dew Point Humidity Pressure Visibility Wind Dir Wind Speed Gust Speed Precip Events Conditions
12:13 AM 42.8 °F 40.1 °F 33.8 °F 70% 29.16 in 10.0 mi SSW 4.6 mph - N/A   Clear
12:33 AM 42.8 °F 39.3 °F 33.8 °F 70% 29.17 in 10.0 mi SSW 5.8 mph - N/A   Clear
12:53 AM 42.8 °F 38.6 °F 33.8 °F 70% 29.17 in 10.0 mi SW 6.9 mph - N/A   Clear
1:14 AM 44.6 °F 42.2 °F 33.8 °F 66% 29.17 in 10.0 mi SW 4.6 mph - N/A   Clear
1:33 AM 44.6 °F 41.4 °F 32.0 °F 61% 29.16 in 10.0 mi WSW 5.8 mph - N/A   Clear
2:13 AM 44.6 °F 43.1 °F 30.2 °F 57% 29.18 in 10.0 mi WSW 3.5 mph - N/A   Clear
2:33 AM 42.8 °F 41.1 °F 30.2 °F 61% 29.18 in 10.0 mi WSW 3.5 mph - N/A   Clear
2:53 AM 42.8 °F 41.1 °F 28.4 °F 57% 29.18 in 10.0 mi SW 3.5 mph - N/A   Clear
3:13 AM 42.8 °F 38.6 °F 28.4 °F 57% 29.18 in 10.0 mi West 6.9 mph - N/A   Clear
3:33 AM 42.8 °F 40.1 °F 26.6 °F 53% 29.19 in 10.0 mi West 4.6 mph - N/A   Clear
3:53 AM 41.0 °F 38.0 °F 26.6 °F 57% 29.20 in 10.0 mi WSW 4.6 mph - N/A   Clear
4:13 AM 41.0 °F 38.0 °F 26.6 °F 57% 29.20 in 10.0 mi West 4.6 mph - N/A   Clear
4:33 AM 39.2 °F 35.0 °F 26.6 °F 61% 29.20 in 10.0 mi West 5.8 mph - N/A   Clear
4:53 AM 39.2 °F 35.9 °F 26.6 °F 61% 29.20 in 10.0 mi West 4.6 mph - N/A   Clear
5:13 AM 39.2 °F 35.9 °F 26.6 °F 61% 29.22 in 10.0 mi WSW 4.6 mph - N/A   Clear
5:33 AM 39.2 °F 35.9 °F 26.6 °F 61% 29.22 in 10.0 mi WSW 4.6 mph - N/A   Clear
5:53 AM 39.2 °F 37.0 °F 26.6 °F 61% 29.22 in 10.0 mi West 3.5 mph - N/A   Clear
6:13 AM 39.2 °F 35.9 °F 26.6 °F 61% 29.22 in 10.0 mi West 4.6 mph - N/A   Clear
6:53 AM 37.4 °F 30.8 °F 26.6 °F 65% 29.22 in 10.0 mi WNW 9.2 mph - N/A   Clear
7:53 AM 35.6 °F 30.7 °F 26.6 °F 70% 29.23 in 10.0 mi West 5.8 mph - N/A   Scattered Clouds
8:13 AM 37.4 °F 32.8 °F 26.6 °F 65% 29.24 in 10.0 mi WNW 5.8 mph - N/A   Overcast
8:33 AM 37.4 °F 31.4 °F 26.6 °F 65% 29.26 in 10.0 mi WNW 8.1 mph - N/A   Mostly Cloudy
8:53 AM 39.2 °F 34.2 °F 28.4 °F 65% 29.26 in 10.0 mi WNW 6.9 mph - N/A   Scattered Clouds
9:13 AM 39.2 °F 37.0 °F 28.4 °F 65% 29.26 in 10.0 mi West 3.5 mph - N/A   Scattered Clouds
9:33 AM 39.2 °F 33.6 °F 28.4 °F 65% 29.27 in 10.0 mi WNW 8.1 mph - N/A   Clear
9:53 AM 39.2 °F 33.0 °F 28.4 °F 65% 29.29 in 10.0 mi WNW 9.2 mph 16.1 mph N/A   Mostly Cloudy
10:13 AM 39.2 °F 32.0 °F 28.4 °F 65% 29.29 in 10.0 mi NW 11.5 mph 17.3 mph N/A   Mostly Cloudy
10:33 AM 39.2 °F 31.6 °F 28.4 °F 65% 29.30 in 10.0 mi NW 12.7 mph 16.1 mph N/A   Mostly Cloudy
10:53 AM 37.4 °F 29.8 °F 28.4 °F 70% 29.31 in 10.0 mi NW 11.5 mph 17.3 mph N/A   Overcast
11:13 AM 37.4 °F 29.8 °F 30.2 °F 75% 29.31 in 10.0 mi NW 11.5 mph - N/A   Mostly Cloudy
11:33 AM 37.4 °F 29.3 °F 30.2 °F 75% 29.32 in 10.0 mi WNW 12.7 mph 20.7 mph N/A   Scattered Clouds
11:53 AM 37.4 °F 30.3 °F 30.2 °F 75% 29.31 in 10.0 mi NW 10.4 mph - N/A   Scattered Clouds
12:13 PM 37.4 °F 30.3 °F 30.2 °F 75% 29.31 in 10.0 mi West 10.4 mph 17.3 mph N/A   Scattered Clouds
12:33 PM 39.2 °F 31.2 °F 30.2 °F 70% 29.31 in 10.0 mi WNW 13.8 mph 20.7 mph N/A   Clear
12:53 PM 39.2 °F 33.0 °F 30.2 °F 70% 29.31 in 10.0 mi West 9.2 mph - N/A   Scattered Clouds
1:13 PM 39.2 °F 31.6 °F 30.2 °F 70% 29.31 in 10.0 mi West 12.7 mph 16.1 mph N/A   Mostly Cloudy
1:33 PM 39.2 °F 32.5 °F 30.2 °F 70% 29.31 in 10.0 mi WNW 10.4 mph - N/A   Overcast
1:53 PM 39.2 °F 31.6 °F 30.2 °F 70% 29.33 in 10.0 mi West 12.7 mph 18.4 mph N/A   Overcast
2:13 PM 39.2 °F 31.2 °F 30.2 °F 70% 29.33 in 10.0 mi WNW 13.8 mph 17.3 mph N/A   Overcast
2:33 PM 39.2 °F 31.6 °F 30.2 °F 70% 29.34 in 10.0 mi West 12.7 mph 20.7 mph N/A   Mostly Cloudy
2:53 PM 39.2 °F 32.0 °F 30.2 °F 70% 29.34 in 10.0 mi WNW 11.5 mph 17.3 mph N/A   Mostly Cloudy
3:13 PM 39.2 °F 32.5 °F 30.2 °F 70% 29.35 in 10.0 mi WNW 10.4 mph - N/A   Mostly Cloudy
3:33 PM 41.0 °F 36.4 °F 30.2 °F 65% 29.35 in 10.0 mi West 6.9 mph - N/A   Mostly Cloudy
3:53 PM 41.0 °F 37.1 °F 30.2 °F 65% 29.38 in 10.0 mi West 5.8 mph - N/A   Mostly Cloudy
4:13 PM 41.0 °F 37.1 °F 30.2 °F 65% 29.37 in 10.0 mi West 5.8 mph - N/A   Scattered Clouds
4:33 PM 41.0 °F 37.1 °F 30.2 °F 65% 29.38 in 10.0 mi West 5.8 mph - N/A   Scattered Clouds
4:53 PM 41.0 °F 36.4 °F 30.2 °F 65% 29.38 in 10.0 mi WSW 6.9 mph - N/A   Mostly Cloudy
5:13 PM 41.0 °F 39.0 °F 30.2 °F 65% 29.39 in 10.0 mi WSW 3.5 mph - N/A   Overcast
5:33 PM 39.2 °F 37.0 °F 30.2 °F 70% 29.39 in 10.0 mi WSW 3.5 mph - N/A   Mostly Cloudy
5:53 PM 39.2 °F - 30.2 °F 70% 29.39 in 10.0 mi Calm Calm - N/A   Clear
6:13 PM 39.2 °F - 30.2 °F 70% 29.40 in 10.0 mi Calm Calm - N/A   Clear
6:34 PM 37.4 °F - 30.2 °F 75% 29.40 in 10.0 mi Calm Calm - N/A   Clear
6:53 PM 37.4 °F - 30.2 °F 75% 29.41 in 10.0 mi Calm Calm - N/A   Clear
7:13 PM 33.8 °F - 30.2 °F 87% 29.41 in 10.0 mi Calm Calm - N/A   Scattered Clouds
7:34 PM 35.6 °F - 30.2 °F 81% 29.42 in 10.0 mi Calm Calm - N/A   Scattered Clouds
7:53 PM 35.6 °F - 30.2 °F 81% 29.41 in 10.0 mi Calm Calm - N/A   Scattered Clouds
8:13 PM 35.6 °F - 30.2 °F 81% 29.41 in 10.0 mi Calm Calm - N/A   Scattered Clouds
8:32 PM 37.4 °F 34.9 °F 30.2 °F 75% 29.42 in 10.0 mi South 3.5 mph - N/A   Mostly Cloudy
8:53 PM 39.2 °F 37.0 °F 30.2 °F 70% 29.42 in 10.0 mi SSW 3.5 mph - N/A   Mostly Cloudy
9:13 PM 39.2 °F 35.9 °F 30.2 °F 70% 29.43 in 10.0 mi SSW 4.6 mph - N/A   Overcast
9:33 PM 39.2 °F 35.9 °F 28.4 °F 65% 29.43 in 10.0 mi SSW 4.6 mph - N/A   Overcast
9:53 PM 39.2 °F 35.9 °F 28.4 °F 65% 29.44 in 10.0 mi SSW 4.6 mph - N/A   Overcast
10:13 PM 39.2 °F 35.9 °F 28.4 °F 65% 29.44 in 10.0 mi SW 4.6 mph - N/A   Overcast
10:33 PM 39.2 °F 35.0 °F 26.6 °F 61% 29.44 in 10.0 mi SW 5.8 mph - N/A   Mostly Cloudy
10:53 PM 37.4 °F 33.8 °F 26.6 °F 65% 29.44 in 10.0 mi SSW 4.6 mph - N/A   Scattered Clouds
11:12 PM 35.6 °F 31.7 °F 26.6 °F 70% 29.44 in 10.0 mi SSW 4.6 mph - N/A   Clear
11:33 PM 35.6 °F 32.8 °F 26.6 °F 70% 29.44 in 10.0 mi SSW 3.5 mph - N/A   Clear
11:53 PM 35.6 °F 32.8 °F 26.6 °F 70% 29.45 in 10.0 mi SSW 3.5 mph - N/A   Clear